GFSFLT1_925_thetae_000.txt.gz
Theta_e
352 351 350 351 354 352 352 349 343 342 344 343 338 337 339 339 338 333 334 335 336 333 333 332 334 333 333 334 334 334 335 336 336
354 349 349 351 352 351 349 343 343 343 343 341 338 338 340 339 338 338 335 336 336 333 334 332 330 332 333 333 334 335 336 334 334
354 349 349 350 350 349 344 342 342 342 342 341 339 338 338 334 335 336 335 335 335 335 334 334 333 333 333 333 333 333 333 332 332
353 348 346 349 349 348 342 341 340 340 341 340 338 338 336 335 334 335 334 333 334 335 334 334 333 334 334 333 333 333 332 332 330
350 351 343 342 347 347 341 341 338 338 338 337 336 336 335 334 334 335 333 333 333 333 333 333 333 333 335 334 333 333 333 332 331
351 352 346 342 345 344 341 340 338 337 337 333 333 334 333 333 334 334 333 332 331 331 332 332 333 334 333 332 333 332 332 332 330
348 351 348 345 344 343 341 340 339 339 336 332 332 332 332 333 334 334 333 332 332 332 333 333 334 334 333 333 333 332 332 331 329
346 347 348 347 345 343 342 341 340 338 336 334 334 333 333 333 334 334 332 333 334 333 333 332 332 331 332 331 331 331 331 328 329
342 346 346 346 345 343 342 341 339 336 335 333 335 335 334 333 334 336 336 334 334 333 331 330 331 330 330 331 331 330 324 324 327
339 342 345 344 344 343 341 339 334 333 333 332 335 336 334 334 336 336 335 332 332 331 332 331 329 329 329 330 330 329 324 321 326
338 339 343 343 342 341 339 334 331 332 331 333 335 335 335 334 335 335 334 332 330 330 331 330 329 328 329 328 327 326 326 323 326
339 340 342 342 340 339 335 332 331 332 333 333 333 333 334 333 334 334 334 332 331 331 330 327 326 328 329 328 327 325 327 324 327
339 339 340 340 338 335 334 333 332 333 334 334 333 332 332 331 333 334 333 332 331 330 329 327 327 327 327 328 326 326 325 326 326
338 338 339 338 336 334 333 335 334 333 334 334 333 332 330 330 334 335 335 331 331 329 330 328 328 328 328 327 324 327 324 324 326
339 339 337 336 335 334 335 337 338 337 337 335 334 332 333 335 335 334 330 334 331 329 329 326 328 328 327 325 325 326 325 323 323
339 337 336 335 335 337 338 338 340 339 338 338 336 339 336 334 330 331 334 333 332 329 328 326 325 325 325 325 324 324 325 321 323
338 337 336 336 336 336 336 336 337 338 339 340 336 334 334 331 333 333 333 330 329 328 325 326 326 325 325 324 324 324 322 320 321
334 334 333 333 334 334 335 336 337 336 335 333 333 333 332 332 331 331 330 331 327 326 323 323 323 325 324 324 323 320 319 319 315
333 334 334 334 334 333 334 333 333 333 333 333 333 332 330 329 328 327 326 326 324 319 319 320 320 319 319 319 314 316 319 316 316
331 333 333 334 333 332 332 332 332 332 332 331 331 331 329 327 326 325 327 328 325 316 315 314 314 314 314 311 310 314 316 317 314

GFSFLT1_925_thetae_003.txt.gz
Theta_e
347 348 347 348 349 350 352 350 349 343 347 347 343 338 340 340 340 334 335 335 337 335 334 333 336 336 336 336 336 336 337 337 336
349 349 350 349 349 352 350 350 346 343 344 345 341 338 343 342 340 339 337 338 337 335 335 334 334 335 335 336 335 335 335 334 336
345 350 351 349 348 352 349 349 344 341 342 343 341 339 340 335 335 336 338 337 337 337 336 336 336 335 334 335 335 335 335 334 333
344 349 352 348 349 349 349 347 343 339 341 341 341 340 339 337 335 335 336 335 334 335 336 336 336 335 334 335 335 335 335 335 334
342 350 353 349 349 348 348 344 342 339 338 339 339 338 338 336 336 336 335 335 334 334 334 334 334 334 335 335 334 333 335 335 334
343 349 353 349 349 350 349 344 343 338 336 336 336 336 337 336 336 336 336 336 334 333 333 334 334 334 334 334 334 334 335 334 334
340 347 351 350 348 351 351 345 343 338 336 335 335 334 333 334 335 337 337 336 335 335 334 334 334 333 333 333 333 333 334 334 333
338 344 349 352 347 349 352 346 345 339 336 335 334 334 334 335 335 337 337 336 335 334 334 333 332 332 332 331 331 330 333 333 331
335 338 346 350 349 347 349 345 343 340 336 336 336 336 336 335 335 336 336 336 335 334 333 331 331 331 330 331 330 329 330 328 328
336 336 341 346 349 351 348 344 343 339 336 336 335 337 337 336 336 337 337 334 334 333 333 332 332 331 330 330 330 329 328 327 327
339 338 337 344 347 347 345 344 342 335 335 336 335 337 337 336 336 336 336 335 334 333 332 333 332 331 329 330 329 328 326 327 327
341 341 341 342 344 345 344 343 338 334 334 334 336 337 337 337 336 336 336 335 334 332 333 332 331 330 329 330 330 330 327 326 327
341 342 343 343 343 344 344 340 333 333 335 335 335 337 336 336 335 334 335 334 334 333 332 331 330 328 327 328 329 329 327 325 326
341 342 344 344 343 343 342 336 333 336 336 336 337 336 335 335 334 334 334 336 334 331 333 332 332 329 329 330 329 328 327 323 324
341 343 343 343 342 340 337 335 336 337 341 339 337 337 335 334 334 335 331 332 335 335 332 332 331 327 327 324 319 327 325 323 322
342 342 341 340 340 338 336 336 339 341 342 342 341 339 337 336 337 333 332 332 336 334 331 330 327 327 326 326 325 326 325 323 321
342 341 340 338 338 338 339 341 343 344 343 342 342 341 341 340 337 336 335 335 332 330 329 328 325 325 326 324 325 323 320 320 321
342 341 340 339 339 338 338 340 341 341 342 343 341 338 336 334 332 333 331 333 330 327 324 323 323 323 323 323 323 318 317 319 316
338 338 337 337 335 335 339 338 339 338 338 337 336 335 333 331 330 328 327 328 325 321 321 320 319 319 318 317 316 316 316 318 316
337 335 333 332 333 334 335 336 337 336 335 334 334 333 330 328 326 326 328 329 329 326 317 317 316 316 315 314 312 314 315 316 315

GFSFLT1_925_thetae_006.txt.gz
Theta_e
345 344 348 349 351 348 351 352 355 353 352 350 345 340 336 336 338 338 338 339 339 337 335 336 334 337 336 336 336 335 336 333 335
346 344 346 349 351 350 352 353 354 352 352 351 346 340 341 342 341 340 339 339 338 336 337 337 336 336 335 335 334 334 333 334 333
340 347 347 347 349 352 354 353 353 350 350 351 344 342 343 343 339 337 339 339 338 337 336 336 337 336 336 335 335 335 335 334 334
336 339 347 351 350 353 355 352 352 347 348 350 345 340 341 339 335 335 337 337 336 335 336 336 337 336 336 335 335 335 334 333 334
338 341 345 353 351 355 355 352 350 346 344 346 344 342 340 339 337 336 336 336 336 335 335 334 334 334 334 334 335 335 333 334 334
346 348 352 356 353 353 354 353 350 345 342 342 342 341 340 338 337 337 337 337 337 336 335 334 335 335 334 334 334 334 334 334 333
341 350 350 356 355 354 353 353 349 346 341 339 339 340 339 338 337 337 338 337 338 336 335 335 335 334 334 333 334 333 334 333 333
338 345 350 358 355 355 355 353 349 347 341 338 337 336 336 336 336 337 338 338 337 336 335 336 335 333 333 334 334 333 332 332 330
339 340 341 347 356 354 359 354 350 345 341 340 335 338 336 336 336 337 338 338 338 337 336 335 333 333 334 332 333 331 330 328 328
339 341 342 344 352 354 359 353 349 345 342 338 336 337 337 337 337 337 338 337 337 336 335 333 333 333 334 333 332 332 330 327 326
335 340 341 344 347 350 355 350 347 346 342 336 339 340 340 339 338 338 339 338 336 335 335 334 333 333 333 331 331 330 329 327 327
337 340 345 346 339 344 351 349 347 345 341 340 341 341 341 341 339 339 339 339 338 336 335 333 334 333 332 331 329 329 330 327 327
339 339 341 343 342 346 351 348 347 344 340 341 341 340 341 341 340 340 339 339 337 336 334 333 325 332 333 332 331 329 326 325 320
339 340 343 344 345 348 350 347 345 340 339 341 341 340 341 340 340 339 337 337 336 336 334 328 331 333 331 331 328 326 322 325 324
343 344 344 345 349 350 348 344 343 340 341 340 340 340 339 339 339 338 337 335 335 332 332 333 333 331 330 326 327 327 324 325 325
345 345 344 345 347 350 346 342 337 343 342 344 344 343 342 340 339 337 337 335 333 335 335 334 332 330 329 327 326 322 324 322 321
346 342 346 345 347 349 346 346 345 347 347 345 344 345 345 342 341 340 338 335 336 334 333 330 329 327 327 326 324 324 320 317 318
343 348 344 342 343 341 338 336 332 336 341 342 345 345 344 341 340 338 336 332 330 330 324 323 324 322 322 321 321 315 316 316 318
346 346 342 339 339 338 333 330 331 332 325 338 340 339 338 337 335 332 333 330 321 322 322 321 320 319 318 316 316 316 315 316 317
341 341 337 332 329 328 328 329 336 338 337 337 336 335 334 331 328 328 331 330 331 327 320 320 320 318 315 313 312 312 313 314 316

GFSFLT1_925_thetae_009.txt.gz
Theta_e
340 339 344 345 344 346 352 355 359 360 357 350 344 342 339 334 335 334 337 341 340 336 331 335 336 336 336 334 334 335 336 334 333
339 338 342 344 344 345 351 354 359 358 356 347 345 340 336 334 336 337 340 339 338 333 339 336 337 336 335 334 335 335 336 334 334
340 339 344 344 344 346 350 355 357 356 353 346 344 343 337 339 341 340 337 338 337 335 334 333 335 336 336 335 334 333 335 334 333
339 341 342 346 347 348 351 355 354 353 350 347 345 342 339 341 342 339 337 338 337 336 335 337 336 336 335 335 334 335 335 335 333
335 336 340 344 344 347 352 354 353 352 351 348 344 342 341 342 336 335 336 337 336 335 335 335 334 332 333 334 334 333 333 333 332
337 337 345 343 339 342 352 353 350 350 350 349 345 340 342 341 339 337 336 336 336 336 335 335 334 334 335 334 333 332 332 333 332
341 340 351 347 351 352 352 352 348 347 347 347 344 341 341 340 338 336 336 336 336 337 335 335 335 336 334 334 333 333 333 333 333
335 340 344 351 349 353 351 351 348 345 344 345 343 342 342 340 338 336 337 337 337 338 336 335 335 335 334 332 333 333 333 330 329
335 336 334 343 352 351 351 351 348 345 342 341 342 342 341 339 338 336 336 337 337 337 336 335 336 334 333 333 333 332 331 331 329
335 336 337 337 339 349 352 352 349 345 341 339 341 341 339 338 336 336 336 337 337 339 338 337 334 332 334 331 332 331 329 330 328
333 334 335 336 337 352 353 351 348 344 342 340 337 337 337 336 336 336 336 337 338 337 337 335 333 333 332 332 333 331 331 328 327
334 338 339 339 340 354 353 349 346 344 342 338 337 336 336 336 336 336 336 338 338 338 337 335 334 333 332 333 332 330 329 326 322
338 338 340 340 341 350 350 348 345 343 341 340 341 336 338 337 338 338 339 339 338 338 337 335 334 334 327 331 330 329 328 323 324
337 337 341 343 343 352 350 348 346 342 341 340 338 338 339 339 339 339 338 338 338 339 336 336 333 328 331 330 330 329 326 324 324
338 337 343 344 351 352 350 347 345 341 341 340 339 340 340 340 340 340 339 339 339 338 337 334 329 331 331 329 328 325 324 323 323
337 338 344 346 351 346 343 343 342 336 327 334 337 343 342 342 341 340 341 340 338 335 331 330 327 330 330 329 325 322 324 321 318
341 343 341 338 335 332 330 330 334 332 330 331 327 327 332 328 326 341 340 337 334 333 332 331 330 328 326 326 324 321 319 317 317
341 341 340 339 336 336 338 333 332 331 329 328 327 326 325 323 339 338 337 335 332 330 324 324 324 321 321 320 318 316 316 316 316
338 337 339 337 333 332 332 335 331 329 326 324 327 326 327 337 337 337 334 329 326 322 322 320 319 318 318 317 315 313 313 314 315
339 335 337 337 334 332 330 329 328 327 327 326 331 338 336 334 331 330 330 324 322 318 316 317 318 315 314 313 312 312 313 315 315

GFSFLT1_925_thetae_015.txt.gz
Theta_e
343 344 349 350 350 349 348 350 352 352 352 352 353 351 352 354 345 335 333 333 331 334 335 335 336 334 334 334 332 333 334 334 335
342 343 348 350 350 349 348 350 352 353 353 352 352 352 354 346 336 331 332 331 335 336 334 333 334 335 335 335 333 333 331 332 334
342 343 345 348 349 348 349 351 352 353 354 353 352 351 353 343 331 333 333 333 336 338 335 334 335 335 335 334 334 333 333 332 333
341 343 344 344 346 346 347 352 352 353 354 353 352 351 353 339 334 333 333 334 337 338 335 335 335 333 335 335 334 333 333 333 332
341 342 342 343 343 344 344 348 351 353 353 352 350 351 349 335 333 333 332 333 334 334 330 331 332 334 335 334 333 333 333 332 331
335 336 340 342 342 343 344 346 349 352 353 351 348 348 345 334 334 334 335 334 335 335 333 332 334 334 333 332 332 333 333 332 332
335 335 337 340 342 342 343 344 348 353 353 351 347 345 341 333 332 335 337 337 337 336 336 334 334 334 333 332 333 334 333 332 332
335 336 336 339 340 340 341 343 347 353 353 350 348 345 339 332 330 335 338 339 338 335 336 335 334 334 333 333 334 335 332 332 332
335 335 338 340 339 338 339 343 348 352 352 350 347 344 340 336 337 338 337 340 335 334 335 334 330 335 335 334 335 334 331 332 331
334 334 337 337 336 335 336 344 349 350 351 350 346 344 340 338 337 340 333 336 335 334 333 332 334 336 336 334 334 333 332 331 330
327 328 330 335 337 340 340 339 346 349 349 349 346 342 340 338 336 337 335 336 336 335 334 334 334 336 336 335 335 333 330 331 330
326 326 324 324 331 340 344 347 343 348 347 346 344 340 340 342 341 337 337 337 337 336 335 335 336 336 336 336 334 332 331 330 329
330 329 330 330 332 336 341 343 348 346 342 343 343 341 339 340 339 338 338 338 338 337 336 336 336 336 336 334 333 331 329 329 328
331 331 332 336 340 341 342 346 346 341 340 341 342 341 340 339 338 338 337 336 336 336 336 336 336 336 335 334 330 324 325 328 326
328 331 336 342 343 343 344 345 345 339 338 339 339 339 340 338 338 338 338 337 335 332 328 332 333 333 333 331 327 323 328 326 324
336 340 340 339 340 339 339 341 342 337 337 337 337 337 336 337 336 336 334 335 329 324 323 330 333 332 330 328 325 326 324 323 321
338 335 334 334 336 333 331 335 336 336 335 336 337 336 335 333 332 329 327 330 331 328 328 331 331 329 328 327 325 322 320 319 318
337 335 334 334 332 330 329 333 334 336 336 337 336 333 329 327 328 328 326 329 330 331 331 329 329 329 328 325 321 320 319 318 315
337 335 334 332 332 332 330 330 331 331 331 328 326 326 326 327 327 326 327 329 326 326 323 324 323 322 322 321 318 316 314 313 313
336 335 333 332 332 331 330 330 330 329 326 325 329 327 324 324 325 326 330 327 321 316 317 317 317 317 316 314 312 312 313 314 315

GFSFLT1_925_thetae_021.txt.gz
Theta_e
348 348 348 348 351 349 349 349 349 349 349 350 350 351 352 353 354 354 352 350 346 342 340 338 336 335 336 338 335 331 332 336 336
348 348 349 348 348 348 349 349 349 350 350 350 349 351 351 353 353 353 351 350 348 342 337 337 333 333 335 338 332 331 335 336 336
345 347 349 349 350 350 349 349 350 350 350 349 349 351 352 353 353 351 351 350 346 338 336 334 334 335 337 334 334 334 333 335 334
342 345 348 350 352 350 350 350 350 350 351 351 351 350 351 352 351 350 350 349 338 333 332 331 334 335 334 336 336 335 334 335 336
340 343 345 348 349 349 350 351 350 350 351 351 351 351 352 350 348 348 348 345 333 328 331 333 333 333 334 335 337 337 336 336 335
343 344 345 347 349 353 353 352 351 351 351 351 351 352 352 349 344 347 349 341 330 331 334 335 335 335 335 334 337 335 334 333 335
343 345 345 347 349 353 353 353 353 352 351 351 352 353 351 347 342 344 346 333 331 330 330 327 331 334 333 333 332 333 333 333 333
344 344 345 349 349 353 354 354 353 352 352 352 352 354 351 348 342 342 338 333 329 326 337 331 328 332 332 331 332 334 332 334 334
345 346 346 347 348 349 352 352 351 351 352 353 354 353 351 346 342 341 337 334 330 326 335 331 331 332 334 333 333 334 332 333 336
345 347 347 346 348 351 349 348 348 349 351 353 354 352 350 344 342 341 338 333 332 332 331 333 333 329 335 337 335 333 332 333 334
344 344 346 345 343 345 346 345 346 348 351 354 353 351 347 345 343 342 340 336 333 333 335 335 334 335 337 337 336 334 333 334 333
339 340 342 342 340 341 342 344 347 350 352 353 352 350 347 345 344 343 339 335 334 335 336 336 336 336 337 337 337 336 334 331 330
336 338 341 343 342 343 344 343 347 350 352 352 351 350 347 345 343 342 339 337 336 336 335 336 337 336 337 334 334 334 331 325 328
338 337 339 340 343 345 346 346 346 349 350 351 351 349 347 345 342 340 339 338 337 337 337 338 338 336 335 335 334 331 327 326 327
345 346 346 345 346 347 346 347 349 349 350 350 349 346 345 344 343 341 340 338 339 339 339 339 338 337 334 335 333 331 330 329 331
344 344 344 343 345 345 346 346 346 346 341 343 344 346 345 341 340 340 339 338 339 339 338 340 338 333 334 334 331 329 329 330 327
344 343 343 343 345 345 344 343 341 342 342 343 344 344 343 343 343 342 341 340 340 339 337 336 333 331 332 332 328 327 323 323 323
344 343 341 340 342 343 340 340 340 340 340 339 341 342 342 341 339 337 332 332 330 331 329 329 331 331 331 330 331 328 324 322 321
342 342 340 341 340 340 338 337 338 338 337 338 339 338 337 336 334 331 328 326 323 326 327 329 329 329 329 324 326 323 320 318 316
336 339 338 339 339 338 338 338 338 336 337 337 336 333 330 330 332 328 325 324 324 322 316 321 322 322 322 322 319 316 315 314 314

GFSFLT1_925_thetae_024.txt.gz
Theta_e
348 350 349 347 348 347 347 348 350 352 356 360 360 358 358 358 359 358 357 357 352 347 341 341 344 345 344 343 343 342 339 337 337
345 349 350 349 349 349 349 350 353 355 357 360 360 357 359 359 359 358 355 356 356 349 345 341 343 344 344 343 342 340 339 337 338
342 345 349 349 350 349 350 350 352 354 357 359 358 356 357 357 358 358 357 357 356 350 346 342 342 342 342 342 342 339 340 337 336
337 340 346 349 350 349 350 351 352 354 356 357 357 357 357 357 356 357 358 356 354 350 345 341 341 342 341 342 340 340 340 338 335
335 337 342 346 350 350 349 352 352 353 355 356 357 356 358 357 356 357 357 355 351 346 342 335 330 335 331 336 340 340 339 338 335
338 347 346 346 349 352 352 352 354 353 354 355 355 356 357 357 357 357 354 351 347 341 329 333 332 327 328 335 340 340 339 339 338
338 342 349 350 350 352 353 353 357 356 354 354 354 355 356 358 358 355 352 351 345 337 334 333 327 327 330 332 340 339 338 338 337
336 346 350 352 352 353 356 355 357 356 355 354 354 355 356 357 358 354 351 352 345 335 335 329 328 333 332 339 339 336 337 337 337
337 344 350 351 353 354 356 356 357 357 356 355 355 356 357 358 357 351 352 350 345 340 337 328 337 338 337 338 335 333 334 336 336
338 339 348 351 353 354 356 355 356 357 356 356 357 357 359 358 356 353 351 350 347 342 337 335 339 339 339 338 337 336 334 333 334
340 340 342 349 351 352 353 353 355 354 356 357 358 359 359 357 356 352 351 350 347 343 338 336 338 339 340 339 338 338 338 334 334
343 343 344 347 348 349 351 351 352 353 354 357 358 358 358 356 353 352 351 350 348 344 341 338 338 339 340 340 339 339 339 336 335
340 340 344 348 346 347 350 350 351 354 356 357 357 356 356 354 352 352 351 348 347 344 342 340 340 340 341 339 340 339 339 337 336
342 344 347 346 347 348 350 350 353 355 355 356 355 355 354 353 352 351 349 348 345 343 342 340 341 341 340 340 339 340 338 334 333
347 349 349 350 352 352 349 353 354 355 355 355 355 355 354 352 351 349 347 345 343 341 340 339 340 341 340 339 340 338 335 331 329
349 348 349 349 351 352 353 353 354 355 355 355 354 353 352 350 347 347 345 343 343 341 340 340 341 341 340 339 338 336 333 331 329
346 346 347 346 349 352 353 352 353 351 351 351 350 351 349 347 346 344 342 343 342 342 341 340 340 340 338 336 334 331 328 328 328
348 349 349 349 351 352 352 352 350 350 349 350 349 348 347 344 342 340 339 337 336 336 337 337 338 335 333 333 333 332 327 327 328
349 348 348 348 349 349 347 348 346 345 348 347 346 346 345 343 342 341 340 335 327 329 328 327 329 332 334 331 331 329 326 325 324
345 347 348 347 346 346 347 345 345 345 344 344 344 343 341 338 338 337 336 334 332 329 322 327 328 327 327 323 323 322 319 316 315

GFSFLT1_925_thetae_027.txt.gz
Theta_e
345 350 349 348 348 346 347 349 352 353 356 365 367 366 364 363 363 359 357 355 352 349 344 342 347 350 350 347 345 343 342 339 338
340 347 349 349 347 346 344 347 351 353 355 363 366 365 366 364 363 361 355 353 355 353 346 342 349 349 347 346 344 343 342 340 339
338 340 345 348 348 348 346 345 348 352 355 363 365 364 366 364 363 363 360 359 358 354 349 343 345 347 346 345 342 342 341 338 339
338 338 341 346 349 348 349 348 348 352 357 361 365 365 364 362 362 361 361 359 359 357 353 347 345 346 345 344 342 343 341 339 339
337 337 338 341 346 349 349 352 349 350 353 357 362 362 364 363 363 361 361 361 360 359 355 350 346 345 344 343 343 342 341 341 338
338 337 340 342 342 348 354 355 354 352 353 353 356 361 362 364 364 363 361 361 360 359 355 350 345 343 343 339 342 340 342 341 340
337 337 339 346 346 342 353 354 357 356 354 352 354 357 359 363 365 364 362 362 360 358 353 348 343 339 341 340 341 339 342 341 340
337 336 337 347 351 350 359 357 360 358 358 356 354 358 360 363 365 364 364 361 359 357 352 346 342 341 340 341 337 339 341 338 339
336 336 336 344 352 352 358 360 361 362 359 359 358 360 361 363 365 365 363 360 359 356 351 345 342 340 339 340 341 339 337 338 338
337 338 337 336 351 355 360 357 360 362 362 360 360 363 362 364 366 365 362 359 358 356 350 345 342 340 341 342 342 338 334 333 336
338 339 338 340 344 353 353 355 357 359 360 362 363 363 364 365 364 364 360 357 358 356 352 347 342 341 341 341 342 340 335 334 334
340 341 341 342 335 347 352 355 358 361 362 362 364 364 365 364 363 362 359 356 356 355 353 348 344 342 342 342 342 341 339 337 337
334 336 337 338 339 343 352 356 356 361 362 364 365 363 364 363 361 359 357 355 355 354 352 349 345 341 342 341 342 342 341 338 339
339 340 342 341 345 349 357 356 358 362 361 362 362 361 361 360 358 357 357 354 354 350 347 344 343 341 340 340 341 341 341 339 339
345 345 346 346 351 352 355 357 361 363 365 362 360 358 358 358 357 356 355 352 350 347 344 345 344 343 341 342 343 342 339 339 338
348 350 351 349 352 357 355 359 362 364 363 360 359 358 358 358 356 353 351 348 346 345 344 344 344 343 344 345 343 341 339 337 335
352 353 356 356 355 359 362 360 361 361 360 359 358 358 355 353 351 350 348 346 344 345 344 343 343 343 343 343 340 339 334 332 331
349 350 351 353 355 357 357 356 356 357 357 356 355 353 351 349 349 348 344 337 340 344 340 341 343 340 338 337 337 335 331 330 328
351 351 351 353 354 355 355 355 354 355 354 353 351 350 348 346 345 343 342 338 331 331 330 334 333 335 336 333 334 332 330 327 325
348 348 350 351 352 352 351 351 352 351 351 350 349 347 346 345 344 343 341 339 336 332 325 328 328 329 331 329 328 328 327 326 325

GFSFLT1_925_thetae_030.txt.gz
Theta_e
348 350 351 351 351 350 353 353 354 356 363 366 366 365 366 364 356 363 360 355 356 351 350 347 348 347 350 351 346 343 341 341 336
343 346 350 351 353 352 351 354 354 355 364 366 367 368 367 366 366 361 362 359 354 356 349 348 347 347 351 349 346 343 342 340 339
345 343 350 350 349 352 350 352 354 355 358 367 368 368 369 367 367 366 362 359 357 352 354 349 348 347 348 347 346 344 343 339 340
344 340 347 350 350 349 350 350 353 355 357 364 368 369 369 368 367 368 364 361 358 360 352 352 350 347 346 349 348 345 343 341 339
343 342 341 343 350 351 350 349 351 353 356 357 365 368 368 368 368 367 367 361 363 361 357 357 349 347 348 347 348 345 345 338 339
344 346 346 345 347 352 353 351 349 351 353 355 360 366 367 368 368 367 366 365 360 362 360 359 349 347 347 349 347 344 344 341 338
343 348 352 350 349 351 353 352 352 351 352 355 357 364 365 366 368 367 366 365 364 362 363 361 353 350 348 348 346 345 344 344 343
345 346 347 354 351 355 361 357 355 353 353 354 356 360 364 366 368 367 366 365 365 363 363 362 356 352 349 347 344 344 343 344 343
345 346 345 352 359 360 362 364 360 356 355 355 355 357 362 363 366 368 368 366 365 364 363 361 356 351 348 346 342 341 339 343 342
347 345 344 348 358 360 362 363 362 359 357 358 355 359 360 362 365 368 368 367 365 365 363 359 354 350 347 344 342 338 337 342 342
345 346 344 347 342 355 358 356 358 363 360 361 360 361 363 364 367 369 369 367 366 364 362 357 352 348 345 342 343 343 340 339 337
340 342 346 348 340 338 353 354 356 360 365 362 363 363 368 368 369 370 369 367 365 362 361 355 352 347 344 343 344 343 342 337 335
335 335 336 344 340 337 341 355 357 363 364 366 364 367 366 369 370 369 367 365 362 361 360 355 350 347 344 343 343 344 342 339 337
334 336 338 336 339 346 353 356 358 365 366 368 366 367 368 369 368 368 366 361 358 357 356 354 350 347 344 343 343 342 341 341 340
344 351 348 343 352 354 362 359 365 368 369 368 367 366 368 367 366 363 361 358 353 355 354 350 347 344 343 343 341 340 342 342 341
347 348 352 350 352 370 364 368 368 369 371 367 367 366 365 363 360 358 356 354 353 349 348 346 344 345 344 342 342 343 343 342 339
351 354 359 358 363 369 372 368 368 369 367 364 363 363 362 361 357 353 351 350 348 346 345 345 346 346 346 344 342 341 338 337 335
356 360 363 360 367 368 369 368 366 365 364 363 362 361 356 353 351 349 344 342 345 345 345 345 344 344 344 344 343 341 336 333 331
357 360 359 361 360 359 361 360 359 358 360 360 357 352 351 349 346 341 339 339 337 338 340 339 340 341 339 337 337 335 332 329 328
347 351 352 354 354 354 356 358 358 359 357 354 352 350 348 347 346 344 342 338 334 327 328 330 331 333 333 333 332 332 330 327 325

GFSFLT1_925_thetae_036.txt.gz
Theta_e
343 340 340 341 342 344 345 347 351 353 353 354 354 354 355 354 352 349 350 353 350 350 350 352 348 350 350 349 346 344 341 340 336
343 340 339 340 341 343 345 347 351 354 354 353 355 354 353 353 353 354 355 355 353 352 351 349 347 347 349 347 346 346 342 339 337
343 341 340 340 340 343 346 346 351 353 354 353 354 355 355 354 352 353 356 356 355 352 348 348 347 347 348 346 346 347 344 340 339
343 341 342 341 341 340 344 347 349 354 355 354 354 356 356 355 354 352 354 357 358 357 354 353 348 347 347 346 347 347 345 342 339
342 340 343 342 342 341 342 347 348 353 356 356 355 356 357 357 356 354 352 355 356 357 359 354 353 350 347 347 347 348 347 343 339
340 341 338 342 343 341 341 346 348 352 356 357 357 357 358 358 359 358 356 354 353 352 355 357 353 353 350 348 348 348 347 342 339
339 338 337 334 337 341 342 346 348 349 353 358 358 359 359 359 359 360 359 358 356 355 354 357 354 354 353 350 348 347 347 342 341
340 339 336 338 338 339 343 345 348 350 351 357 359 361 360 360 360 361 361 361 360 358 356 356 356 355 353 350 348 348 347 344 340
338 333 335 334 336 338 344 345 349 350 351 357 359 361 362 362 362 362 362 362 363 361 360 358 357 355 353 351 349 347 346 344 342
332 336 337 338 338 339 344 346 349 350 351 353 359 360 361 362 363 363 363 362 363 363 360 360 359 357 354 353 352 350 348 346 345
331 333 334 336 339 342 344 345 346 350 351 353 355 360 361 362 363 363 363 364 363 363 361 359 360 359 357 355 355 353 350 348 346
331 330 330 331 338 343 345 346 345 346 348 351 353 355 359 361 362 362 364 364 363 363 363 360 360 360 358 358 357 357 351 348 346
327 324 327 334 337 344 343 348 347 346 346 348 350 352 352 358 361 362 363 364 363 363 363 361 359 359 360 360 359 357 352 347 343
335 328 326 329 333 334 346 348 354 348 348 347 348 351 352 353 359 361 363 364 364 363 362 360 358 359 357 357 354 353 348 345 341
343 343 344 339 326 327 333 345 356 352 349 350 350 349 351 354 358 360 362 364 364 362 361 356 354 350 347 348 350 347 344 342 341
350 347 344 356 343 344 344 339 355 356 353 352 354 353 355 356 359 361 364 364 362 360 357 352 347 346 346 346 346 345 343 342 343
357 357 357 360 359 359 360 361 349 354 357 356 358 358 363 364 364 364 363 362 360 356 352 348 346 345 345 346 344 343 342 342 342
356 356 357 360 358 359 360 365 363 360 362 363 365 364 363 361 356 357 350 348 349 350 348 348 346 346 346 343 343 343 342 341 341
350 352 353 354 356 358 359 360 361 363 363 361 358 356 350 345 341 336 335 329 331 344 349 351 350 349 346 343 342 342 341 338 336
343 346 348 350 350 352 353 353 353 354 354 353 352 345 341 338 337 334 332 332 336 325 336 345 344 343 343 343 342 340 335 330 328

GFSFLT1_925_thetae_042.txt.gz
Theta_e
341 342 345 345 344 342 341 345 347 346 347 347 348 348 348 349 349 349 349 350 350 348 346 347 351 352 351 351 351 349 348 346 344
338 338 341 343 343 342 341 343 346 346 347 347 347 349 349 349 350 350 349 350 350 350 346 348 352 352 352 352 352 349 348 344 343
338 337 337 341 342 341 341 341 344 346 346 347 347 349 350 350 350 350 350 350 350 350 349 346 348 351 350 352 352 349 349 345 343
338 337 337 338 340 341 341 340 342 345 346 347 347 349 350 351 350 350 350 350 350 350 350 349 346 349 350 350 352 348 350 347 344
335 338 337 337 338 339 340 340 341 343 345 347 348 348 350 351 351 351 350 350 350 350 350 350 347 348 350 349 351 348 349 348 345
332 335 338 338 337 338 338 339 340 342 344 346 348 348 349 351 351 351 351 350 350 350 350 350 347 348 350 349 350 348 347 348 346
329 333 336 338 338 337 337 338 340 342 344 346 347 348 349 350 351 351 351 351 351 351 351 351 348 349 351 350 349 348 347 347 347
334 335 336 336 338 337 336 337 339 342 344 346 348 349 349 350 350 350 350 350 351 352 352 351 350 348 351 349 348 347 347 346 346
332 335 336 336 337 337 336 336 339 342 344 347 348 349 349 350 351 351 350 350 350 350 351 352 352 350 350 350 348 348 349 348 346
326 332 335 335 335 336 337 336 338 342 343 347 348 350 350 350 351 351 351 351 350 349 350 351 352 351 351 351 351 351 351 351 348
319 324 332 334 333 334 335 337 337 340 343 346 349 350 350 350 351 351 352 352 352 351 350 349 350 351 351 351 351 352 352 353 351
319 320 326 332 333 333 334 335 339 340 342 344 349 351 351 351 352 352 353 354 354 353 353 352 351 351 351 350 350 349 350 350 348
320 322 324 327 330 331 331 332 334 339 343 344 347 351 352 353 353 354 354 354 355 355 355 355 355 353 352 351 350 350 350 350 348
321 322 323 324 326 333 334 334 334 340 343 345 346 348 352 354 355 355 355 355 355 356 356 357 357 357 355 353 351 351 351 351 348
324 323 323 324 328 329 335 337 340 342 344 343 346 347 351 353 355 356 357 357 357 358 358 358 359 358 357 353 353 352 352 351 350
339 346 346 328 321 338 343 341 340 339 341 343 346 347 349 353 355 356 357 358 358 359 359 359 359 359 357 354 352 352 353 352 347
355 354 354 353 353 352 351 357 350 346 346 348 345 343 347 348 350 354 357 358 358 359 360 360 360 358 355 352 347 340 343 339 343
351 351 350 351 352 352 351 353 356 360 358 352 349 345 343 345 348 349 348 352 357 358 354 360 355 353 348 343 340 335 334 332 341
346 346 348 348 349 350 350 350 353 357 360 356 354 352 350 344 339 338 341 340 333 340 340 336 337 335 333 330 331 334 333 331 336
338 340 342 342 344 344 342 342 347 350 354 354 350 344 341 339 338 339 339 338 334 330 330 332 337 334 334 331 332 331 332 332 335

GFSFLT1_925_thetae_045.txt.gz
Theta_e
349 349 350 350 352 350 348 349 349 350 350 350 350 350 350 350 350 351 351 351 351 351 351 351 350 348 349 348 350 350 350 347 346
346 348 349 349 348 349 348 347 348 350 350 350 350 351 350 351 351 351 351 351 351 351 351 352 349 345 347 350 350 351 351 349 347
344 345 346 348 350 349 348 347 348 350 350 351 350 350 351 351 351 351 351 351 351 351 351 350 351 348 350 353 352 352 351 350 348
341 342 343 344 347 349 348 347 346 349 350 350 351 351 351 351 351 351 351 352 351 350 349 349 350 347 350 352 350 351 352 350 348
337 339 341 342 342 344 346 348 347 347 349 350 350 350 351 352 352 352 352 352 352 350 350 349 349 349 349 353 352 351 351 351 348
336 340 342 343 342 345 348 347 346 346 348 348 349 350 351 352 352 353 353 352 352 352 350 350 350 351 350 351 353 351 350 351 350
332 339 342 345 345 345 347 346 346 345 347 347 348 350 351 352 353 353 353 352 352 352 351 351 350 350 350 349 350 352 351 351 351
333 336 341 344 346 348 348 347 346 345 346 347 348 350 351 352 352 353 353 353 353 353 353 352 350 350 350 350 349 351 351 350 350
334 335 338 343 347 348 349 347 346 345 346 347 348 350 351 351 352 353 353 354 354 353 354 353 353 352 351 351 350 350 349 350 350
334 335 339 342 346 349 351 345 345 345 346 347 349 350 351 351 353 353 354 354 354 354 355 355 354 353 352 352 351 348 347 348 350
334 334 335 337 338 342 344 343 342 344 345 348 350 351 352 352 353 354 354 354 354 354 354 355 356 355 354 353 351 349 348 348 349
333 335 337 334 332 335 341 343 343 344 347 348 351 352 353 353 353 354 354 355 354 354 354 354 354 355 356 355 354 351 348 348 347
330 330 331 332 331 333 337 342 341 344 348 350 352 352 352 353 353 354 355 355 355 355 354 354 353 354 355 355 355 354 351 349 349
331 333 333 330 331 336 339 339 340 347 347 350 349 351 352 353 354 354 355 355 356 356 356 356 356 355 354 354 354 354 352 350 350
329 333 332 329 334 335 337 341 339 346 351 347 349 350 353 355 356 355 355 356 356 357 357 356 357 358 358 356 355 353 353 350 349
336 348 345 330 336 343 346 347 345 349 349 349 351 351 352 355 357 357 357 358 358 358 357 357 357 359 359 358 357 354 352 352 350
356 357 352 347 356 357 357 353 351 350 349 348 349 353 355 356 357 358 359 359 359 359 360 360 359 360 360 359 355 352 351 350 346
355 353 353 355 357 357 358 359 361 360 353 352 352 352 353 354 355 356 356 355 359 361 361 361 361 360 359 350 340 339 342 340 335
353 352 352 352 352 352 353 356 358 356 358 356 354 353 351 345 342 342 342 343 344 353 358 359 360 357 353 341 344 337 337 335 337
340 343 343 344 345 346 349 351 350 350 353 351 349 344 341 339 342 339 337 339 337 332 336 339 339 337 335 334 335 335 336 336 331

GFSFLT1_925_thetae_048.txt.gz
Theta_e
350 351 352 352 353 351 349 348 351 352 355 358 358 357 357 357 356 354 353 353 353 353 352 350 351 354 355 357 356 358 358 356 354
341 347 351 353 352 351 351 350 351 354 356 358 358 357 358 358 357 356 353 354 356 354 354 352 353 354 356 356 357 358 358 356 355
339 341 347 351 352 351 351 351 352 354 356 359 358 357 358 357 357 357 356 356 356 356 355 355 352 355 355 356 357 358 359 356 356
337 340 345 350 351 350 351 351 351 353 356 357 357 357 357 357 357 357 357 357 357 357 357 357 357 355 355 355 357 360 360 358 355
336 339 341 346 348 350 350 350 351 351 353 355 356 356 358 358 358 357 357 358 358 357 358 358 358 358 356 355 356 359 360 358 355
336 337 339 341 342 345 347 349 352 350 351 352 354 356 356 357 358 358 358 359 358 358 358 358 358 358 359 357 354 356 359 358 357
333 336 339 340 342 343 343 346 352 354 351 351 352 354 355 357 359 358 358 359 359 359 359 359 359 359 359 358 357 355 355 357 357
333 335 337 339 344 345 348 347 352 355 353 351 351 354 355 356 358 359 359 359 359 359 359 359 359 359 359 359 357 355 355 356 356
330 331 331 334 341 344 349 349 351 352 353 352 352 355 356 357 358 360 360 360 360 360 360 360 360 360 360 359 357 354 352 354 356
332 332 333 334 339 344 347 349 349 351 353 352 353 355 357 358 359 360 360 360 360 360 361 360 361 360 360 360 359 355 354 351 354
332 332 332 335 335 337 342 344 344 349 350 353 354 356 356 358 359 360 360 360 361 361 361 360 361 361 360 360 359 358 355 352 351
332 333 333 334 333 332 333 337 340 346 350 351 353 357 357 358 359 360 361 361 361 362 360 361 360 360 360 361 360 358 356 354 351
332 332 332 332 331 331 332 334 339 345 350 353 357 357 357 358 359 360 361 361 361 360 360 359 359 359 360 361 361 360 358 355 352
339 338 336 333 333 335 335 336 341 348 350 353 355 354 355 357 359 361 361 361 360 360 359 359 359 358 358 358 358 358 357 358 354
343 341 340 335 337 336 336 341 345 354 357 353 355 355 354 357 360 359 358 360 360 360 360 361 360 360 359 357 352 352 352 351 357
347 346 344 337 341 338 340 343 346 351 356 354 353 355 357 359 359 359 357 360 361 360 360 359 360 359 358 357 354 348 351 356 356
350 349 344 344 342 344 350 352 353 352 352 354 355 356 357 358 360 361 360 360 360 360 359 360 359 357 356 350 345 357 358 357 355
351 348 357 352 353 358 359 359 358 355 355 355 354 356 358 359 360 360 361 358 358 361 360 360 360 360 359 357 360 362 359 357 355
356 355 355 357 358 362 365 363 359 362 356 356 357 359 359 359 359 361 362 356 348 354 358 361 360 360 362 360 360 354 356 354 352
343 347 347 350 351 352 354 354 355 355 359 360 359 356 355 354 354 352 353 355 356 350 340 352 356 355 355 352 348 345 344 342 340